Regional Weather Roundup
Issued by NWS

Home | Current Version | Previous Version | Graphics & Text | Print | Product List | Glossary On
Versions: 1 2 3 4 5 6 7 8 9 10 11 12 13 14 15 16 17 18 19 20 21 22 23 24 25 26 27 28 29 30 31 32 33 34 35 36 37 38 39 40 41 42 43 44 45 46 47 48 49 50
750
ASUS45 KBOI 070110
RWRID

IDAHO REGIONAL WEATHER ROUNDUP
NATIONAL WEATHER SERVICE BOISE ID
600 PM MST TUE DEC 06 2016

NOTE: "FAIR" INDICATES FEW OR NO CLOUDS BELOW 12000 FEET
WITH NO SIGNIFICANT WEATHER AND/OR OBSTRUCTIONS TO VISIBILITY

IDZ012-014-070200-
SOUTHWEST IDAHO


CITY           SKY/WX    TMP DP  RH WIND       PRES   REMARKS
BOISE          CLOUDY    25  19  78 NW7       30.02R WCI  17
CALDWELL       PTCLDY    21  18  88 W5        30.06R WCI  15
MOUNTAIN HOME  MOCLDY    22  20  93 W10       30.01R WCI  11
$$

IDZ016-017-070200-
SOUTHCENTRAL IDAHO


CITY           SKY/WX    TMP DP  RH WIND       PRES   REMARKS
BURLEY         PTCLDY    17  14  88 SW8       29.91R WCI   7
JEROME         PTCLDY    16  14  93 SW5       29.94R WCI   9
TWIN FALLS     MOCLDY    18  14  84 SW13      29.93R WCI   5
$$

IDZ019>023-070200-
SOUTHEAST IDAHO


CITY           SKY/WX    TMP DP  RH WIND       PRES   REMARKS
IDAHO FALLS    CLOUDY    19  12  74 N5        29.86R WCI  12
POCATELLO      FLURRIES  19  17  92 W5        29.89R WCI  12
REXBURG        CLOUDY    15  12  88 NE5       29.85R WCI   8
$$

IDZ006-010-011-018-031-032-070200-
CENTRAL IDAHO MOUNTAINS


CITY           SKY/WX    TMP DP  RH WIND       PRES   REMARKS
MCCALL         PTCLDY    15  11  83 W7        29.87R WCI   5
HAILEY         MOCLDY    12  10  92 S5        29.84R WCI   4
STANLEY          N/A      7   3  84 CALM      29.80R
SALMON         CLOUDY    10   9  92 E5        29.95R WCI   2
CHALLIS        CLOUDY    14  12  92 CALM      29.87R
$$

IDZ002-004-006-007-026-070200-
NORTHERN IDAHO


CITY           SKY/WX    TMP DP  RH WIND       PRES   REMARKS
LEWISTON       CLOUDY    29  22  75 W9        30.12R WCI  20
LOWELL         NOT AVBL
COEUR D`ALENE  PTCLDY    22  13  68 N8        30.10R WCI  12
MULLAN PASS    LGT SNOW   8   5  87 CALM      29.85R FOG
$$




USA.gov is the U.S. government's official web portal to all federal, state and local government web resources and services.